Regional Weather Roundup
Issued by NWS

Home | Current Version | Previous Version | Text Only | Print | Product List | Glossary Off
Versions: 1 2 3 4 5 6 7 8 9 10 11 12 13 14 15 16 17 18 19 20 21 22 23 24 25 26 27 28 29 30 31 32 33 34 35 36 37 38 39 40 41 42 43 44 45 46 47 48 49 50

000
ASUS43 KFSD 210010
RWRSD

WEATHER ROUNDUP FOR SOUTH DAKOTA
NATIONAL WEATHER SERVICE SIOUX FALLS SD
600 PM CST FRI JAN 20 2017

NOTE: "FAIR" INDICATES FEW OR NO CLOUDS BELOW 12,000 FEET WITH NO
SIGNIFICANT WEATHER AND/OR OBSTRUCTIONS TO VISIBILITY.


SDZ001>005-009-010-012>017-210100-
NORTHWEST AND NORTH CENTRAL SOUTH DAKOTA

CITY           SKY/WX    TMP DP  RH WIND       PRES   REMARKS
BUFFALO          N/A     36  31  82 NW20      29.27S
FAITH            N/A     21  21 100 NE9       29.30S WCI  11
MOBRIDGE       CLOUDY    30  27  88 NW6       29.29F FOG     WCI  24
$$

SDZ012>016-024>037-041>051-057-063-072>074-210100-
SOUTHWEST AND SOUTH CENTRAL SOUTH DAKOTA

CITY           SKY/WX    TMP DP  RH WIND       PRES   REMARKS
RAPID CTY ARPT CLEAR     37  28  70 NW15      29.32R
PIERRE         CLOUDY    15  12  88 W3        29.32S
CUSTER         CLOUDY    37  24  59 CALM      29.32R
ELLSWORTH AFB  PTCLDY    37  30  75 NW16      29.31R
PHILIP         PTCLDY    32  30  92 VRB3      29.32R
PINE RIDGE     CLOUDY    36  33  89 W5        29.36R
SPEARFISH      CLOUDY    37  32  81 W10       29.36S
WINNER         FAIR      35  28  75 SW5       29.34R
$$

SDZ004>011-016>023-039-040-210100-
NORTHEAST SOUTH DAKOTA

CITY           SKY/WX    TMP DP  RH WIND       PRES   REMARKS
ABERDEEN       PTCLDY    33  30  88 SE6       29.37R WCI  28
WATERTOWN      FOG       35  35 100 SE10      29.39R VSB 1/4 WCI  27
BROOKINGS      FOG       37  36  96 S9        29.41S VSB 1
SISSETON         N/A     35  35 100 S12       29.41S WCI  27
$$

SDZ017-020-022-023-036>040-048>070-210100-
SOUTHEAST SOUTH DAKOTA

CITY           SKY/WX    TMP DP  RH WIND       PRES   REMARKS
SIOUX FALLS    FOG       39  39 100 SE12      29.44R VSB 1/2
HURON          CLEAR     38  34  85 E3        29.35S
CHAMBERLAIN    CLEAR     34  30  85 CALM      29.35R
MITCHELL       MOCLDY    42  38  85 S13       29.38R
YANKTON        CLOUDY    41  37  87 SE12      29.42R
$$

ABBREVIATIONS USED IN REMARKS
   TC - TEMPERATURE IN CELSIUS
  WCI - WIND CHILL INDEX
   HX - HEAT INDEX
  VSB - VISIBILITY





USA.gov is the U.S. government's official web portal to all federal, state and local government web resources and services.